Location: Igon
(43.1667°N, 0.2333°W)
Time: 21:00:54
(UTC+00:00)

Cosmos 1782 - Pass Details

Date: 29 November 2020
Orbit: 537 x 550 km, 82.5° (Epoch: 20 January)

Event Time Altitude Azimuth Distance (km) Brightness Sun altitude
Exits shadow 05:50:35 22° 310° (NW) 1,231 4.1 -14.3°
Maximum altitude 05:52:15 30° 269° (W) 997 3.6 -14.0°
Drops below altitude 10° 05:55:47 10° 208° (SSW) 1,823 5.4 -13.4°
Sets 05:58:06 0° 197° (SSW) 2,712 6.4 -13.0°
